sat.trackr.live / text

‹ back to catalog

STARLINK-4059

NORAD 53250 · 2022-086J

PAYLOAD ACTIVE UNKNOWN

§ Identity

Operator
Country
US
Launch date
2022-07-24
Launch site
AFETR
Launch vehicle
Mass (kg)
RCS (m²)

Purposes: comms

External: N2YO · Heavens-Above · Gunter

§ Orbital elements

Epoch: 2026-09-19T23:36:26.408736Z

Period
93.85 min
Inclination
53.1618°
Eccentricity
0.0001398
Mean motion
15.34372599 rev/d
Perigee alt
461.8 km
Apogee alt
463.7 km
Semi-major
6,840.9 km
B*
-1.9441e-5
RAAN
27.7912°
Arg perigee
52.3790°
Mean anomaly
307.7339°
Rev number
23,059

§ Raw data

STARLINK-40591 53250U 22086J   26262.98363899 -.00001032  00000+0 -19441-4 0  99962 53250  53.1618  27.7912 0001398  52.3790 307.7339 15.34372599230595

JSON: /api/v1/satellites/53250 · /tle

For live sub-satellite position, see the globe view (requires WebGL).

§ Visibility from observer

Set your observer location to see the next 7 days of passes ≥ 10°. The values pass through the URL so the page stays shareable.

No JS? Fill the form by hand. The geolocation button needs JavaScript.